COSMOS 886 DEB, 9826

Orbit data source: Space-Track

COSMOS 886 DEB, 9826 is space debris in LEO originally from a launch on Mon, 27 Dec 1976 UTC launched from the Tyuratam Missile And Space Complex (TTMTR). Debris objects in space refer to the collection of defunct objects orbiting the Earth. Examples of debris include non-operational satellites, rocket bodies, and fragments generated from explosions, collisions, or faulty payload assembly.

Loading next visibility...
Identifier
9826, 1976-126AN
Orbit
LEO
Country
Flag of CISCIS
Related business
Manufacturer
Unknown
Mission
Spacecraft
Bus & Motor
Unknown
Mass
Unknown
Launch date (UTC)
1976-12-27 (49 years ago)
Launch vehicle
Unknown
Launch site
Tyuratam Missile And Space Complex (TTMTR)
Object type
Payload
Rocket body
Debris
Shape & HBR
Unknown shape, 0.1 m
Radar Cross Section
Small (<0.1 m²)

Expand to show TLE details & history
Last TLE update: 13 hours ago

TLE from 13 hours ago
0 COSMOS 886 DEB
1  9826U 76126AN  26130.01890510  .00000723  00000-0  22903-3 0  9994
2  9826  65.8419   2.9807 0741846 310.3856  43.4658 13.48308099357237
Epoch: 2026-05-10T00:27Z
TLE epoch observation values (Epoch: 2026-05-10T00:27:13.400Z)
Latitude
-0.00008°
Longitude
128.34683°
Altitude
700.035 km
Speed
7.695 km/s
True Right ascension
00h 11m 55s
True Declination
0° 00' 00"
Sunlit
Object was in daylight at epoch
Visualization orbit readout
Latitude
Unknown
Longitude
Unknown
Altitude
Unknown
Speed
Unknown
Apparent Right ascension
Unknown
Apparent Declination
Unknown
Sunlit
N/A
Visualization observer readout
Local Sidereal Time
21:18:54
Azimuth
Unknown
Elevation
Unknown
Doppler factor
Unknown
Orbital elements
Apogee altitude
1,630.071 km
Perigee altitude
523.956 km
Semi-major axis
7,455.15 km
Eccentricity
0.07418
Inclination
65.8419°
RAAN
2.9807°
Arg. of periapsis
310.3856°
True anomaly
49.72187°
Mean anomaly
43.4658°
Eccentric anomaly
46.55161°
Mean motion
3.37177 °/min
Orbital period
106.77 mins
BSTAR
0.00022903
Loading maneuver chart data...
Computing Atmospheric mass density...
Loading historical data...
Loading historical data...
Loading historical data...
Loading historical data...
Loading historical data...
Loading historical data...
Loading historical data...

Documentation

Showing up to 5 results
|